Time,TemperatureF,DewpointF,PressureIn,WindDirection,WindDirectionDegrees,WindSpeedMPH,WindSpeedGustMPH,Humidity,HourlyPrecipIn,Conditions,Clouds,dailyrainin,SoftwareType,DateUTC
2013-05-26 00:05:00,52.4,50.0,30.12,ESE,103,11.0,18.0,91,0.00,,,0.00,weatherlink.com 1.10,2013-05-26 05:05:00,
2013-05-26 00:20:00,52.1,50.0,30.12,East,94,9.0,14.0,91,0.00,,,0.00,weatherlink.com 1.10,2013-05-26 05:20:00,
2013-05-26 00:35:00,52.0,50.0,30.11,East,95,7.0,13.0,92,0.00,,,0.00,weatherlink.com 1.10,2013-05-26 05:35:00,
2013-05-26 00:50:00,51.8,50.0,30.11,ESE,107,0.0,13.0,92,0.00,,,0.00,weatherlink.com 1.10,2013-05-26 05:50:00,
2013-05-26 01:05:00,51.7,50.0,30.10,ESE,109,11.0,15.0,92,0.00,,,0.00,weatherlink.com 1.10,2013-05-26 06:05:00,
2013-05-26 01:20:00,51.6,49.0,30.10,ESE,104,8.0,15.0,92,0.00,,,0.00,weatherlink.com 1.10,2013-05-26 06:20:00,
2013-05-26 01:35:00,51.5,49.0,30.10,East,94,8.0,14.0,92,0.00,,,0.00,weatherlink.com 1.10,2013-05-26 06:35:00,
2013-05-26 01:50:00,51.5,50.0,30.09,East,99,6.0,16.0,93,0.00,,,0.00,weatherlink.com 1.10,2013-05-26 06:50:00,
2013-05-26 02:05:00,51.5,50.0,30.10,East,85,7.0,13.0,93,0.00,,,0.00,weatherlink.com 1.10,2013-05-26 07:05:00,
2013-05-26 02:20:00,51.5,49.0,30.10,ESE,109,5.0,13.0,92,0.00,,,0.00,weatherlink.com 1.10,2013-05-26 07:20:00,
2013-05-26 02:35:00,51.4,49.0,30.08,ESE,103,3.0,15.0,92,0.00,,,0.00,weatherlink.com 1.10,2013-05-26 07:35:00,
2013-05-26 02:50:00,51.4,49.0,30.07,ESE,109,11.0,16.0,92,0.00,,,0.00,weatherlink.com 1.10,2013-05-26 07:50:00,
2013-05-26 03:05:00,51.5,49.0,30.06,SE,128,10.0,18.0,92,0.00,,,0.00,weatherlink.com 1.10,2013-05-26 08:05:00,
2013-05-26 03:20:00,51.5,49.0,30.06,East,99,5.0,18.0,92,0.00,,,0.00,weatherlink.com 1.10,2013-05-26 08:20:00,
2013-05-26 03:35:00,51.5,49.0,30.06,SE,126,4.0,16.0,92,0.00,,,0.00,weatherlink.com 1.10,2013-05-26 08:35:00,
2013-05-26 03:50:00,51.6,49.0,30.07,East,90,9.0,17.0,92,0.00,,,0.00,weatherlink.com 1.10,2013-05-26 08:50:00,
2013-05-26 04:05:00,51.7,50.0,30.06,ESE,104,3.0,18.0,92,0.00,,,0.00,weatherlink.com 1.10,2013-05-26 09:05:00,
2013-05-26 04:20:00,51.8,50.0,30.06,ESE,111,4.0,18.0,92,0.00,,,0.00,weatherlink.com 1.10,2013-05-26 09:20:00,
2013-05-26 04:35:00,51.8,50.0,30.06,ESE,111,7.0,14.0,92,0.00,,,0.00,weatherlink.com 1.10,2013-05-26 09:35:00,
2013-05-26 04:50:00,51.7,50.0,30.06,East,96,3.0,16.0,92,0.00,,,0.00,weatherlink.com 1.10,2013-05-26 09:50:00,
2013-05-26 05:05:00,51.7,50.0,30.07,ESE,120,9.0,15.0,92,0.00,,,0.00,weatherlink.com 1.10,2013-05-26 10:05:00,
2013-05-26 05:20:00,51.6,49.0,30.05,SE,126,3.0,19.0,92,0.00,,,0.00,weatherlink.com 1.10,2013-05-26 10:20:00,
2013-05-26 05:35:00,51.6,49.0,30.05,ESE,114,9.0,15.0,91,0.00,,,0.00,weatherlink.com 1.10,2013-05-26 10:35:00,
2013-05-26 05:51:00,51.7,49.0,30.05,ESE,122,9.0,18.0,91,0.00,,,0.00,weatherlink.com 1.10,2013-05-26 10:51:00,
2013-05-26 06:06:00,51.8,49.0,30.04,ESE,115,0.0,17.0,91,0.00,,,0.00,weatherlink.com 1.10,2013-05-26 11:06:00,
2013-05-26 06:21:00,51.9,49.0,30.04,ESE,118,7.0,16.0,91,0.00,,,0.00,weatherlink.com 1.10,2013-05-26 11:21:00,
2013-05-26 06:36:00,52.1,50.0,30.05,ESE,115,4.0,16.0,91,0.00,,,0.00,weatherlink.com 1.10,2013-05-26 11:36:00,
2013-05-26 06:51:00,52.2,50.0,30.05,SE,125,7.0,14.0,91,0.00,,,0.00,weatherlink.com 1.10,2013-05-26 11:51:00,
2013-05-26 07:06:00,52.3,50.0,30.06,SE,130,12.0,15.0,91,0.00,,,0.00,weatherlink.com 1.10,2013-05-26 12:06:00,
2013-05-26 07:21:00,52.4,50.0,30.05,SE,133,4.0,13.0,91,0.00,,,0.00,weatherlink.com 1.10,2013-05-26 12:21:00,
2013-05-26 07:36:00,52.7,51.0,30.05,ESE,121,5.0,16.0,92,0.00,,,0.00,weatherlink.com 1.10,2013-05-26 12:36:00,
2013-05-26 07:51:00,53.0,51.0,30.06,ESE,107,0.0,12.0,92,0.00,,,0.00,weatherlink.com 1.10,2013-05-26 12:51:00,
2013-05-26 08:06:00,53.2,51.0,30.07,ESE,116,0.0,13.0,91,0.00,,,0.00,weatherlink.com 1.10,2013-05-26 13:06:00,
2013-05-26 08:21:00,53.3,51.0,30.08,East,96,8.0,15.0,92,0.00,,,0.00,weatherlink.com 1.10,2013-05-26 13:21:00,
2013-05-26 08:36:00,53.5,51.0,30.08,ESE,116,4.0,14.0,92,0.00,,,0.00,weatherlink.com 1.10,2013-05-26 13:36:00,
2013-05-26 08:51:00,53.7,52.0,30.07,ESE,109,5.0,12.0,92,0.00,,,0.00,weatherlink.com 1.10,2013-05-26 13:51:00,
2013-05-26 09:06:00,54.0,52.0,30.07,SE,136,5.0,19.0,91,0.00,,,0.00,weatherlink.com 1.10,2013-05-26 14:06:00,
2013-05-26 09:21:00,54.4,52.0,30.07,SE,134,6.0,16.0,91,0.00,,,0.00,weatherlink.com 1.10,2013-05-26 14:21:00,
2013-05-26 09:36:00,54.8,52.0,30.07,ESE,117,1.0,13.0,91,0.00,,,0.00,weatherlink.com 1.10,2013-05-26 14:36:00,
2013-05-26 09:51:00,55.4,53.0,30.07,ESE,115,5.0,13.0,91,0.00,,,0.00,weatherlink.com 1.10,2013-05-26 14:51:00,
2013-05-26 10:06:00,55.7,53.0,30.08,ESE,105,9.0,13.0,90,0.00,,,0.00,weatherlink.com 1.10,2013-05-26 15:06:00,
2013-05-26 10:21:00,56.2,53.0,30.08,East,93,0.0,11.0,90,0.00,,,0.00,weatherlink.com 1.10,2013-05-26 15:21:00,
2013-05-26 10:36:00,56.4,54.0,30.08,ESE,103,4.0,11.0,90,0.00,,,0.00,weatherlink.com 1.10,2013-05-26 15:36:00,
2013-05-26 10:51:00,56.6,54.0,30.08,ENE,77,0.0,11.0,90,0.00,,,0.00,weatherlink.com 1.10,2013-05-26 15:51:00,
2013-05-26 11:06:00,56.3,54.0,30.08,ENE,62,9.0,10.0,90,0.00,,,0.00,weatherlink.com 1.10,2013-05-26 16:06:00,
2013-05-26 11:21:00,56.3,54.0,30.07,East,82,7.0,11.0,90,0.00,,,0.00,weatherlink.com 1.10,2013-05-26 16:21:00,
2013-05-26 11:36:00,56.6,54.0,30.06,East,86,8.0,12.0,91,0.00,,,0.00,weatherlink.com 1.10,2013-05-26 16:36:00,
2013-05-26 11:51:00,56.6,54.0,30.05,ENE,60,0.0,15.0,91,0.00,,,0.00,weatherlink.com 1.10,2013-05-26 16:51:00,
2013-05-26 12:06:00,57.0,55.0,30.05,East,92,10.0,15.0,91,0.00,,,0.00,weatherlink.com 1.10,2013-05-26 17:06:00,
2013-05-26 12:21:00,56.9,54.0,30.05,East,90,6.0,17.0,90,0.00,,,0.00,weatherlink.com 1.10,2013-05-26 17:21:00,
2013-05-26 12:36:00,56.9,54.0,30.04,ENE,78,13.0,17.0,91,0.00,,,0.00,weatherlink.com 1.10,2013-05-26 17:36:00,
2013-05-26 12:51:00,56.9,54.0,30.04,ENE,71,4.0,18.0,91,0.00,,,0.00,weatherlink.com 1.10,2013-05-26 17:51:00,
2013-05-26 13:06:00,56.8,54.0,30.04,East,94,11.0,18.0,91,0.00,,,0.00,weatherlink.com 1.10,2013-05-26 18:06:00,
2013-05-26 13:21:00,56.4,54.0,30.05,East,88,8.0,13.0,91,0.00,,,0.00,weatherlink.com 1.10,2013-05-26 18:21:00,
2013-05-26 13:36:00,56.4,54.0,30.05,East,85,3.0,15.0,92,0.00,,,0.00,weatherlink.com 1.10,2013-05-26 18:36:00,
2013-05-26 13:51:00,56.4,54.0,30.05,East,87,8.0,11.0,92,0.00,,,0.00,weatherlink.com 1.10,2013-05-26 18:51:00,
2013-05-26 14:06:00,56.6,54.0,30.05,East,86,6.0,12.0,92,0.00,,,0.00,weatherlink.com 1.10,2013-05-26 19:06:00,
2013-05-26 14:21:00,57.0,55.0,30.03,ESE,111,12.0,18.0,93,0.00,,,0.00,weatherlink.com 1.10,2013-05-26 19:21:00,
2013-05-26 14:36:00,57.0,55.0,30.04,East,83,8.0,17.0,92,0.00,,,0.00,weatherlink.com 1.10,2013-05-26 19:36:00,
2013-05-26 14:51:00,57.1,55.0,30.02,East,86,7.0,15.0,92,0.00,,,0.00,weatherlink.com 1.10,2013-05-26 19:51:00,
2013-05-26 15:06:00,57.0,55.0,30.00,ESE,106,2.0,11.0,93,0.00,,,0.00,weatherlink.com 1.10,2013-05-26 20:06:00,
2013-05-26 15:21:00,58.9,57.0,30.00,ESE,104,9.0,13.0,94,0.00,,,0.00,weatherlink.com 1.10,2013-05-26 20:21:00,
2013-05-26 15:36:00,60.4,58.0,30.00,East,96,5.0,12.0,92,0.00,,,0.00,weatherlink.com 1.10,2013-05-26 20:36:00,
2013-05-26 15:51:00,61.0,58.0,29.99,ESE,103,11.0,14.0,90,0.00,,,0.00,weatherlink.com 1.10,2013-05-26 20:51:00,
2013-05-26 16:06:00,61.3,58.0,30.01,NE,52,7.0,12.0,89,0.00,,,0.00,weatherlink.com 1.10,2013-05-26 21:06:00,
2013-05-26 16:21:00,60.6,57.0,30.00,NE,42,7.0,12.0,89,0.00,,,0.00,weatherlink.com 1.10,2013-05-26 21:21:00,
2013-05-26 16:36:00,60.3,57.0,29.99,ENE,57,5.0,10.0,89,0.00,,,0.00,weatherlink.com 1.10,2013-05-26 21:36:00,
2013-05-26 16:51:00,60.0,57.0,29.98,East,82,10.0,16.0,90,0.00,,,0.00,weatherlink.com 1.10,2013-05-26 21:51:00,
2013-05-26 17:06:00,59.7,57.0,29.98,ENE,60,3.0,15.0,90,0.00,,,0.00,weatherlink.com 1.10,2013-05-26 22:06:00,
2013-05-26 17:22:00,59.5,57.0,29.98,East,87,9.0,13.0,90,0.00,,,0.00,weatherlink.com 1.10,2013-05-26 22:22:00,
2013-05-26 17:37:00,59.0,56.0,29.98,East,88,6.0,15.0,91,0.00,,,0.00,weatherlink.com 1.10,2013-05-26 22:37:00,
2013-05-26 17:52:00,59.1,57.0,29.99,East,92,14.0,16.0,92,0.00,,,0.00,weatherlink.com 1.10,2013-05-26 22:52:00,
2013-05-26 18:07:00,58.3,56.0,29.99,East,84,3.0,13.0,92,0.00,,,0.00,weatherlink.com 1.10,2013-05-26 23:07:00,
2013-05-26 18:22:00,58.2,56.0,30.01,NE,53,4.0,11.0,93,0.00,,,0.00,weatherlink.com 1.10,2013-05-26 23:22:00,
2013-05-26 18:37:00,58.1,56.0,30.05,NNE,17,11.0,23.0,93,0.05,,,0.05,weatherlink.com 1.10,2013-05-26 23:37:00,
2013-05-26 18:52:00,58.5,57.0,29.95,SE,140,0.0,9.0,94,0.49,,,0.49,weatherlink.com 1.10,2013-05-26 23:52:00,
2013-05-26 19:07:00,59.3,58.0,29.95,ENE,76,3.0,12.0,95,0.50,,,0.50,weatherlink.com 1.10,2013-05-27 00:07:00,
2013-05-26 19:22:00,59.9,59.0,29.91,SE,136,9.0,13.0,95,0.50,,,0.50,weatherlink.com 1.10,2013-05-27 00:22:00,
2013-05-26 19:37:00,60.0,59.0,29.90,SE,135,5.0,7.0,95,0.41,,,0.50,weatherlink.com 1.10,2013-05-27 00:37:00,
2013-05-26 19:52:00,60.2,59.0,29.88,SE,133,0.0,9.0,95,0.01,,,0.50,weatherlink.com 1.10,2013-05-27 00:52:00,
2013-05-26 20:07:00,60.3,59.0,29.89,SE,132,4.0,12.0,95,0.00,,,0.50,weatherlink.com 1.10,2013-05-27 01:07:00,
2013-05-26 20:22:00,60.5,59.0,29.88,SE,146,4.0,13.0,95,0.00,,,0.50,weatherlink.com 1.10,2013-05-27 01:22:00,
2013-05-26 20:37:00,60.8,59.0,29.89,SE,140,3.0,12.0,95,0.00,,,0.50,weatherlink.com 1.10,2013-05-27 01:37:00,
2013-05-26 20:52:00,60.6,59.0,29.91,SE,124,0.0,7.0,94,0.00,,,0.50,weatherlink.com 1.10,2013-05-27 01:52:00,
2013-05-26 21:07:00,60.3,59.0,29.90,NE,51,0.0,8.0,94,0.00,,,0.50,weatherlink.com 1.10,2013-05-27 02:07:00,
2013-05-26 21:22:00,59.9,58.0,29.91,NE,51,0.0,0.0,94,0.00,,,0.50,weatherlink.com 1.10,2013-05-27 02:22:00,
2013-05-26 21:37:00,59.6,58.0,29.92,NE,51,0.0,3.0,95,0.00,,,0.50,weatherlink.com 1.10,2013-05-27 02:37:00,
2013-05-26 21:52:00,59.5,58.0,29.92,NE,41,5.0,7.0,95,0.00,,,0.50,weatherlink.com 1.10,2013-05-27 02:52:00,
2013-05-26 22:07:00,59.5,58.0,29.92,NNE,29,0.0,10.0,95,0.00,,,0.50,weatherlink.com 1.10,2013-05-27 03:07:00,
2013-05-26 22:22:00,59.4,58.0,29.91,NNE,29,0.0,6.0,95,0.00,,,0.50,weatherlink.com 1.10,2013-05-27 03:22:00,
2013-05-26 22:37:00,59.4,58.0,29.91,NE,48,4.0,10.0,95,0.00,,,0.50,weatherlink.com 1.10,2013-05-27 03:37:00,
2013-05-26 22:52:00,59.4,58.0,29.90,ENE,67,5.0,14.0,95,0.00,,,0.50,weatherlink.com 1.10,2013-05-27 03:52:00,
2013-05-26 23:07:00,59.1,58.0,29.91,NE,56,4.0,14.0,95,0.00,,,0.50,weatherlink.com 1.10,2013-05-27 04:07:00,
2013-05-26 23:22:00,58.4,57.0,29.92,ENE,74,10.0,14.0,95,0.00,,,0.50,weatherlink.com 1.10,2013-05-27 04:22:00,
2013-05-26 23:37:00,58.1,57.0,29.92,ENE,71,8.0,12.0,95,0.00,,,0.50,weatherlink.com 1.10,2013-05-27 04:37:00,
2013-05-26 23:52:00,57.9,57.0,29.93,NE,55,0.0,13.0,95,0.00,,,0.50,weatherlink.com 1.10,2013-05-27 04:52:00,